RH
23 19 18 17 16 16 19 24 26 26 28 29 31 34 32 28 28 31 33 36 39 40 39 38 38 42 45 48 49 50 52 50 47 46 45 43 42 42 44 48 48 45
26 21 19 18 17 17 19 24 25 25 27 30 32 32 31 31 33 34 36 38 40 39 38 38 41 44 45 46 47 48 48 46 45 45 44 42 41 40 41 45 46 45
28 24 21 20 19 19 21 24 26 25 28 31 31 32 34 36 37 38 40 40 39 39 40 40 41 42 44 43 44 45 44 43 43 43 42 41 40 39 38 41 44 46
27 26 24 22 22 22 23 25 26 26 29 31 32 36 39 40 39 40 41 39 39 42 43 42 39 39 40 40 41 41 41 40 40 41 42 40 40 39 37 37 40 42
26 25 25 25 25 26 26 26 27 29 31 32 35 40 43 41 40 41 41 40 43 45 44 40 38 37 37 39 39 38 38 39 39 40 41 40 40 40 38 37 38 39
25 25 25 26 27 29 28 27 29 31 31 33 38 42 42 41 40 41 41 43 44 43 41 39 37 38 39 39 38 37 37 37 38 39 40 40 40 40 40 40 39 39
24 24 25 26 28 31 30 29 30 31 31 36 40 41 41 40 39 41 42 42 40 40 40 38 37 39 41 41 40 38 37 37 37 38 39 39 40 41 42 42 41 41
22 23 25 25 26 30 31 29 29 29 31 37 40 39 39 39 39 40 39 38 38 38 39 39 39 40 42 44 44 41 38 37 37 38 39 40 40 41 43 44 46 47
22 23 26 26 27 30 31 28 27 27 30 36 39 38 38 38 38 37 36 36 38 38 39 41 42 43 45 47 47 45 41 38 37 37 38 40 41 42 44 49 53 53
23 25 26 28 29 30 28 26 26 27 29 35 37 35 36 36 36 35 35 36 38 39 42 45 46 47 48 50 49 48 46 43 40 38 37 40 41 44 50 55 58 58
23 24 26 28 29 27 24 24 26 26 29 33 35 34 35 34 34 35 35 37 38 41 44 46 48 48 48 50 50 51 51 50 47 44 42 42 43 47 53 57 59 59
24 24 25 25 25 23 22 23 25 26 29 32 34 34 34 34 35 36 36 36 38 41 43 44 45 46 46 48 51 54 55 55 53 51 50 49 48 50 54 56 56 56
27 23 22 22 21 20 20 21 24 26 28 31 32 33 34 35 36 37 36 37 37 38 40 42 44 45 47 50 54 57 59 59 58 57 58 57 55 54 55 55 53 54
29 25 21 20 19 19 19 21 23 24 27 30 32 33 34 35 36 37 38 38 38 39 40 42 45 48 51 53 56 58 58 57 58 59 61 62 61 60 59 56 53 54
31 28 24 21 20 20 20 21 22 24 27 30 33 34 34 35 36 38 40 41 42 42 43 45 49 52 53 54 55 56 55 55 56 59 61 63 65 65 62 57 53 52
32 30 27 24 22 22 21 21 22 23 26 30 33 34 34 35 38 40 43 44 44 44 45 48 51 53 54 54 53 54 55 57 59 61 62 63 64 67 65 58 52 50
31 31 29 26 23 22 22 22 22 24 27 31 33 34 35 38 42 44 45 45 45 44 46 49 52 53 53 52 52 55 58 61 61 62 66 65 62 65 66 59 52 48
31 31 30 28 25 24 22 23 24 26 28 31 33 35 38 43 47 49 48 48 47 47 49 51 53 53 51 50 53 56 59 60 60 64 71 67 61 65 66 57 50 48
30 31 30 29 27 25 25 26 28 29 30 33 35 37 41 46 48 49 50 49 49 49 52 55 55 52 51 53 57 57 59 63 66 69 69 63 60 65 64 54 51 52
31 30 30 30 28 28 29 30 31 31 33 36 39 42 44 46 47 49 49 47 49 52 55 56 54 52 54 57 58 59 62 66 70 69 62 56 55 59 58 54 54 57
31 30 30 30 30 31 32 33 33 35 38 42 44 46 46 46 46 47 46 47 51 55 57 56 54 54 58 60 60 62 64 66 68 65 58 52 51 52 54 57 58 60
31 30 30 31 32 33 34 36 36 38 42 45 47 48 48 48 48 47 47 49 54 58 58 56 55 56 61 63 63 64 65 66 68 65 59 53 48 49 56 61 61 61
31 30 30 31 33 34 35 36 38 41 45 47 49 50 51 50 49 48 50 54 57 58 58 55 55 59 63 63 63 64 65 66 66 63 60 53 47 50 59 64 62 61
31 30 31 32 33 34 35 37 39 42 45 47 47 49 49 50 49 50 54 57 58 57 55 54 56 60 62 63 63 63 63 63 62 62 61 54 47 50 60 64 63 63
33 31 31 32 32 33 36 39 40 42 44 45 45 47 49 50 51 54 57 57 58 57 54 55 58 60 62 63 62 61 60 60 61 63 59 52 48 50 57 62 63 64
34 33 32 32 33 34 38 42 43 44 45 46 47 50 51 52 53 56 57 57 57 56 55 56 59 60 60 61 60 60 60 61 63 63 57 51 49 50 55 60 62 64